Time,TemperatureF,DewpointF,PressureIn,WindDirection,WindDirectionDegrees,WindSpeedMPH,WindSpeedGustMPH,Humidity,HourlyPrecipIn,Conditions,Clouds,dailyrainin,SoftwareType,DateUTC
2013-08-26 00:00:00,71.3,64.1,30.22,SW,229,1.0,1.0,78,0.00,,,0.00,Wunderground v.1.15,2013-08-26 04:00:00,
2013-08-26 00:05:00,71.2,64.0,30.22,SSW,212,1.0,2.0,78,0.00,,,0.00,Wunderground v.1.15,2013-08-26 04:05:00,
2013-08-26 00:10:00,71.2,64.0,30.22,WSW,245,2.0,2.0,78,0.00,,,0.00,Wunderground v.1.15,2013-08-26 04:10:00,
2013-08-26 00:15:00,71.1,63.9,30.21,SW,222,2.0,2.0,78,0.00,,,0.00,Wunderground v.1.15,2013-08-26 04:15:00,
2013-08-26 00:20:00,71.0,63.8,30.21,SW,231,2.0,2.0,78,0.00,,,0.00,Wunderground v.1.15,2013-08-26 04:20:00,
2013-08-26 00:25:00,70.7,63.9,30.21,WSW,242,2.0,2.0,79,0.00,,,0.00,Wunderground v.1.15,2013-08-26 04:25:00,
2013-08-26 00:30:00,70.4,63.6,30.21,West,267,1.0,1.0,79,0.00,,,0.00,Wunderground v.1.15,2013-08-26 04:30:00,
2013-08-26 00:35:00,70.3,63.5,30.21,SW,229,1.0,2.0,79,0.00,,,0.00,Wunderground v.1.15,2013-08-26 04:35:00,
2013-08-26 00:40:00,70.3,63.8,30.21,WSW,255,1.0,2.0,80,0.00,,,0.00,Wunderground v.1.15,2013-08-26 04:40:00,
2013-08-26 00:45:00,70.2,63.7,30.21,SW,232,1.0,2.0,80,0.00,,,0.00,Wunderground v.1.15,2013-08-26 04:45:00,
2013-08-26 00:50:00,70.1,63.6,30.21,West,270,1.0,1.0,80,0.00,,,0.00,Wunderground v.1.15,2013-08-26 04:50:00,
2013-08-26 00:55:00,69.9,63.4,30.21,West,278,1.0,2.0,80,0.00,,,0.00,Wunderground v.1.15,2013-08-26 04:55:00,
2013-08-26 01:00:00,69.8,63.3,30.21,WSW,250,1.0,2.0,80,0.00,,,0.00,Wunderground v.1.15,2013-08-26 05:00:00,
2013-08-26 01:10:00,69.8,63.3,30.21,West,267,2.0,2.0,80,0.00,,,0.00,Wunderground v.1.15,2013-08-26 05:10:00,
2013-08-26 01:15:00,69.8,63.3,30.20,WSW,245,2.0,2.0,80,0.00,,,0.00,Wunderground v.1.15,2013-08-26 05:15:00,
2013-08-26 01:20:00,69.7,63.3,30.20,West,262,1.0,1.0,80,0.00,,,0.00,Wunderground v.1.15,2013-08-26 05:20:00,
2013-08-26 01:25:00,69.7,63.3,30.20,West,270,1.0,1.0,80,0.00,,,0.00,Wunderground v.1.15,2013-08-26 05:25:00,
2013-08-26 01:35:00,69.4,63.3,30.20,West,273,1.0,1.0,81,0.00,,,0.00,Wunderground v.1.15,2013-08-26 05:35:00,
2013-08-26 01:40:00,69.2,63.1,30.20,SW,230,1.0,2.0,81,0.00,,,0.00,Wunderground v.1.15,2013-08-26 05:40:00,
2013-08-26 01:45:00,69.1,63.0,30.19,SW,236,1.0,2.0,81,0.00,,,0.00,Wunderground v.1.15,2013-08-26 05:45:00,
2013-08-26 01:50:00,69.0,62.9,30.19,WSW,257,1.0,1.0,81,0.00,,,0.00,Wunderground v.1.15,2013-08-26 05:50:00,
2013-08-26 01:55:00,69.0,62.9,30.19,West,277,1.0,1.0,81,0.00,,,0.00,Wunderground v.1.15,2013-08-26 05:55:00,
2013-08-26 02:05:00,68.9,62.8,30.19,SW,221,1.0,2.0,81,0.00,,,0.00,Wunderground v.1.15,2013-08-26 06:05:00,
2013-08-26 02:10:00,68.9,62.8,30.18,SSW,210,1.0,2.0,81,0.00,,,0.00,Wunderground v.1.15,2013-08-26 06:10:00,
2013-08-26 02:15:00,69.0,62.9,30.18,SW,221,2.0,2.0,81,0.00,,,0.00,Wunderground v.1.15,2013-08-26 06:15:00,
2013-08-26 02:20:00,68.8,62.7,30.17,SW,222,2.0,3.0,81,0.00,,,0.00,Wunderground v.1.15,2013-08-26 06:20:00,
2013-08-26 02:25:00,68.5,62.8,30.17,SW,217,2.0,3.0,82,0.00,,,0.00,Wunderground v.1.15,2013-08-26 06:25:00,
2013-08-26 02:30:00,68.1,62.7,30.17,WSW,248,2.0,2.0,83,0.00,,,0.00,Wunderground v.1.15,2013-08-26 06:30:00,
2013-08-26 02:35:00,68.0,62.6,30.17,West,260,1.0,2.0,83,0.00,,,0.00,Wunderground v.1.15,2013-08-26 06:35:00,
2013-08-26 02:40:00,68.0,62.6,30.17,West,281,2.0,2.0,83,0.00,,,0.00,Wunderground v.1.15,2013-08-26 06:40:00,
2013-08-26 02:45:00,67.9,62.5,30.17,West,260,2.0,2.0,83,0.00,,,0.00,Wunderground v.1.15,2013-08-26 06:45:00,
2013-08-26 02:50:00,67.7,62.3,30.17,West,260,1.0,1.0,83,0.00,,,0.00,Wunderground v.1.15,2013-08-26 06:50:00,
2013-08-26 02:55:00,67.5,62.5,30.16,West,260,1.0,1.0,84,0.00,,,0.00,Wunderground v.1.15,2013-08-26 06:55:00,
2013-08-26 03:00:00,67.4,62.4,30.16,WSW,242,1.0,1.0,84,0.00,,,0.00,Wunderground v.1.15,2013-08-26 07:00:00,
2013-08-26 03:10:00,67.4,62.1,30.16,WNW,283,1.0,1.0,83,0.00,,,0.00,Wunderground v.1.15,2013-08-26 07:10:00,
2013-08-26 03:15:00,67.1,62.1,30.16,WSW,253,1.0,1.0,84,0.00,,,0.00,Wunderground v.1.15,2013-08-26 07:15:00,
2013-08-26 03:20:00,66.8,61.8,30.16,WNW,294,1.0,1.0,84,0.00,,,0.00,Wunderground v.1.15,2013-08-26 07:20:00,
2013-08-26 03:25:00,66.8,61.8,30.16,WNW,288,1.0,1.0,84,0.00,,,0.00,Wunderground v.1.15,2013-08-26 07:25:00,
2013-08-26 03:30:00,67.0,62.0,30.16,WNW,295,1.0,2.0,84,0.00,,,0.00,Wunderground v.1.15,2013-08-26 07:30:00,
2013-08-26 03:35:00,67.1,62.1,30.16,West,270,1.0,2.0,84,0.00,,,0.00,Wunderground v.1.15,2013-08-26 07:35:00,
2013-08-26 03:45:00,67.2,61.9,30.16,WSW,255,2.0,3.0,83,0.00,,,0.00,Wunderground v.1.15,2013-08-26 07:45:00,
2013-08-26 03:50:00,67.2,61.9,30.16,West,261,1.0,1.0,83,0.00,,,0.00,Wunderground v.1.15,2013-08-26 07:50:00,
2013-08-26 03:55:00,67.2,61.9,30.16,WNW,302,1.0,2.0,83,0.00,,,0.00,Wunderground v.1.15,2013-08-26 07:55:00,
2013-08-26 04:00:00,67.3,62.0,30.17,West,281,2.0,2.0,83,0.00,,,0.00,Wunderground v.1.15,2013-08-26 08:00:00,
2013-08-26 04:10:00,67.2,61.9,30.17,West,281,2.0,2.0,83,0.00,,,0.00,Wunderground v.1.15,2013-08-26 08:10:00,
2013-08-26 04:15:00,67.2,61.9,30.17,West,281,2.0,2.0,83,0.00,,,0.00,Wunderground v.1.15,2013-08-26 08:15:00,
2013-08-26 04:20:00,67.1,61.8,30.17,WSW,257,2.0,2.0,83,0.00,,,0.00,Wunderground v.1.15,2013-08-26 08:20:00,
2013-08-26 04:25:00,67.0,61.7,30.17,West,267,2.0,2.0,83,0.00,,,0.00,Wunderground v.1.15,2013-08-26 08:25:00,
2013-08-26 04:30:00,67.0,61.7,30.17,WSW,245,2.0,2.0,83,0.00,,,0.00,Wunderground v.1.15,2013-08-26 08:30:00,
2013-08-26 04:35:00,67.0,61.3,30.17,West,263,2.0,3.0,82,0.00,,,0.00,Wunderground v.1.15,2013-08-26 08:35:00,
2013-08-26 04:40:00,67.0,61.3,30.17,WNW,295,2.0,2.0,82,0.00,,,0.00,Wunderground v.1.15,2013-08-26 08:40:00,
2013-08-26 04:50:00,66.7,61.4,30.18,West,274,2.0,2.0,83,0.00,,,0.00,Wunderground v.1.15,2013-08-26 08:50:00,
2013-08-26 04:55:00,66.6,61.3,30.18,WSW,249,1.0,2.0,83,0.00,,,0.00,Wunderground v.1.15,2013-08-26 08:55:00,
2013-08-26 05:00:00,66.5,61.2,30.17,SW,222,1.0,1.0,83,0.00,,,0.00,Wunderground v.1.15,2013-08-26 09:00:00,
2013-08-26 05:10:00,66.4,61.1,30.17,West,271,1.0,1.0,83,0.00,,,0.00,Wunderground v.1.15,2013-08-26 09:10:00,
2013-08-26 05:20:00,66.0,61.0,30.17,WSW,252,1.0,1.0,84,0.00,,,0.00,Wunderground v.1.15,2013-08-26 09:20:00,
2013-08-26 05:25:00,65.8,60.8,30.17,West,262,1.0,1.0,84,0.00,,,0.00,Wunderground v.1.15,2013-08-26 09:25:00,
2013-08-26 05:30:00,65.7,60.7,30.16,WSW,250,1.0,1.0,84,0.00,,,0.00,Wunderground v.1.15,2013-08-26 09:30:00,
2013-08-26 05:35:00,65.6,61.0,30.16,WSW,238,1.0,1.0,85,0.00,,,0.00,Wunderground v.1.15,2013-08-26 09:35:00,
2013-08-26 05:40:00,65.4,60.8,30.16,SW,236,0.0,0.0,85,0.00,,,0.00,Wunderground v.1.15,2013-08-26 09:40:00,
2013-08-26 05:45:00,65.0,60.7,30.16,SW,235,0.0,0.0,86,0.00,,,0.00,Wunderground v.1.15,2013-08-26 09:45:00,
2013-08-26 05:55:00,64.7,60.7,30.17,West,277,0.0,0.0,87,0.00,,,0.00,Wunderground v.1.15,2013-08-26 09:55:00,
2013-08-26 06:00:00,64.5,60.5,30.17,WNW,284,0.0,1.0,87,0.00,,,0.00,Wunderground v.1.15,2013-08-26 10:00:00,
2013-08-26 06:10:00,64.1,60.5,30.17,West,266,0.0,1.0,88,0.00,,,0.00,Wunderground v.1.15,2013-08-26 10:10:00,
2013-08-26 06:15:00,64.0,60.4,30.17,West,274,0.0,1.0,88,0.00,,,0.00,Wunderground v.1.15,2013-08-26 10:15:00,
2013-08-26 06:20:00,64.0,60.7,30.17,WNW,287,1.0,1.0,89,0.00,,,0.00,Wunderground v.1.15,2013-08-26 10:20:00,
2013-08-26 06:25:00,63.9,60.6,30.17,WNW,287,0.0,1.0,89,0.00,,,0.00,Wunderground v.1.15,2013-08-26 10:25:00,
2013-08-26 06:30:00,63.7,60.4,30.17,WNW,286,0.0,1.0,89,0.00,,,0.00,Wunderground v.1.15,2013-08-26 10:30:00,
2013-08-26 06:35:00,63.6,60.3,30.17,WNW,295,0.0,1.0,89,0.00,,,0.00,Wunderground v.1.15,2013-08-26 10:35:00,
2013-08-26 06:40:00,63.5,60.2,30.17,NW,311,1.0,1.0,89,0.00,,,0.00,Wunderground v.1.15,2013-08-26 10:40:00,
2013-08-26 06:45:00,63.5,60.5,30.18,WNW,301,1.0,1.0,90,0.00,,,0.00,Wunderground v.1.15,2013-08-26 10:45:00,
2013-08-26 06:55:00,63.5,60.2,30.17,WNW,298,1.0,1.0,89,0.00,,,0.00,Wunderground v.1.15,2013-08-26 10:55:00,
2013-08-26 07:00:00,63.6,60.3,30.17,WNW,290,1.0,1.0,89,0.00,,,0.00,Wunderground v.1.15,2013-08-26 11:00:00,
2013-08-26 07:10:00,63.6,60.3,30.17,West,269,1.0,1.0,89,0.00,,,0.00,Wunderground v.1.15,2013-08-26 11:10:00,
2013-08-26 07:15:00,63.7,60.4,30.17,West,271,1.0,1.0,89,0.00,,,0.00,Wunderground v.1.15,2013-08-26 11:15:00,
2013-08-26 07:20:00,63.7,60.4,30.18,West,277,1.0,1.0,89,0.00,,,0.00,Wunderground v.1.15,2013-08-26 11:20:00,
2013-08-26 07:30:00,63.9,60.6,30.18,WNW,298,2.0,3.0,89,0.00,,,0.00,Wunderground v.1.15,2013-08-26 11:30:00,
2013-08-26 07:35:00,64.1,60.5,30.18,WNW,284,2.0,3.0,88,0.00,,,0.00,Wunderground v.1.15,2013-08-26 11:35:00,
2013-08-26 07:40:00,64.1,60.5,30.17,WNW,290,1.0,1.0,88,0.00,,,0.00,Wunderground v.1.15,2013-08-26 11:40:00,
2013-08-26 07:45:00,64.2,60.6,30.18,West,278,1.0,1.0,88,0.00,,,0.00,Wunderground v.1.15,2013-08-26 11:45:00,
2013-08-26 07:50:00,64.2,60.6,30.18,WSW,255,1.0,1.0,88,0.00,,,0.00,Wunderground v.1.15,2013-08-26 11:50:00,
2013-08-26 08:00:00,64.4,60.8,30.18,WNW,293,2.0,3.0,88,0.00,,,0.00,Wunderground v.1.15,2013-08-26 12:00:00,
2013-08-26 08:10:00,64.6,61.0,30.18,WSW,255,2.0,2.0,88,0.00,,,0.00,Wunderground v.1.15,2013-08-26 12:10:00,
2013-08-26 08:15:00,64.7,61.1,30.19,WNW,301,1.0,2.0,88,0.00,,,0.00,Wunderground v.1.15,2013-08-26 12:15:00,
2013-08-26 08:20:00,65.0,61.4,30.18,WNW,285,1.0,1.0,88,0.00,,,0.00,Wunderground v.1.15,2013-08-26 12:20:00,
2013-08-26 08:25:00,65.2,61.6,30.18,West,260,1.0,1.0,88,0.00,,,0.00,Wunderground v.1.15,2013-08-26 12:25:00,
2013-08-26 08:35:00,66.1,62.1,30.18,WSW,250,2.0,2.0,87,0.00,,,0.00,Wunderground v.1.15,2013-08-26 12:35:00,
2013-08-26 08:40:00,66.6,62.3,30.18,West,274,2.0,4.0,86,0.00,,,0.00,Wunderground v.1.15,2013-08-26 12:40:00,
2013-08-26 08:45:00,67.0,62.7,30.18,West,269,2.0,4.0,86,0.00,,,0.00,Wunderground v.1.15,2013-08-26 12:45:00,
2013-08-26 08:50:00,67.4,62.4,30.18,SW,232,2.0,3.0,84,0.00,,,0.00,Wunderground v.1.15,2013-08-26 12:50:00,
2013-08-26 08:55:00,67.8,62.8,30.18,WSW,238,2.0,3.0,84,0.00,,,0.00,Wunderground v.1.15,2013-08-26 12:55:00,
2013-08-26 09:00:00,68.1,62.7,30.18,WSW,247,2.0,2.0,83,0.00,,,0.00,Wunderground v.1.15,2013-08-26 13:00:00,
2013-08-26 09:10:00,68.8,63.1,30.18,West,274,2.0,2.0,82,0.00,,,0.00,Wunderground v.1.15,2013-08-26 13:10:00,
2013-08-26 09:15:00,69.3,63.9,30.17,WNW,300,2.0,5.0,83,0.00,,,0.00,Wunderground v.1.15,2013-08-26 13:15:00,
2013-08-26 09:20:00,69.9,64.2,30.17,WSW,253,2.0,2.0,82,0.00,,,0.00,Wunderground v.1.15,2013-08-26 13:20:00,
2013-08-26 09:25:00,70.4,63.9,30.17,SW,232,2.0,4.0,80,0.00,,,0.00,Wunderground v.1.15,2013-08-26 13:25:00,
2013-08-26 09:30:00,71.0,63.8,30.17,WSW,258,3.0,3.0,78,0.00,,,0.00,Wunderground v.1.15,2013-08-26 13:30:00,
2013-08-26 09:35:00,71.6,64.4,30.17,West,262,3.0,3.0,78,0.00,,,0.00,Wunderground v.1.15,2013-08-26 13:35:00,
2013-08-26 09:40:00,71.9,64.3,30.17,WSW,245,3.0,3.0,77,0.00,,,0.00,Wunderground v.1.15,2013-08-26 13:40:00,
2013-08-26 09:45:00,72.2,65.3,30.17,WSW,247,3.0,3.0,79,0.00,,,0.00,Wunderground v.1.15,2013-08-26 13:45:00,
2013-08-26 09:50:00,72.4,65.2,30.17,WNW,299,3.0,3.0,78,0.00,,,0.00,Wunderground v.1.15,2013-08-26 13:50:00,
2013-08-26 09:55:00,72.5,64.9,30.16,West,278,3.0,6.0,77,0.00,,,0.00,Wunderground v.1.15,2013-08-26 13:55:00,
2013-08-26 10:00:00,72.7,64.7,30.17,WSW,255,3.0,9.0,76,0.00,,,0.00,Wunderground v.1.15,2013-08-26 14:00:00,
2013-08-26 10:10:00,73.0,65.4,30.17,WSW,250,4.0,5.0,77,0.00,,,0.00,Wunderground v.1.15,2013-08-26 14:10:00,
2013-08-26 10:15:00,73.4,65.7,30.17,WSW,245,4.0,5.0,77,0.00,,,0.00,Wunderground v.1.15,2013-08-26 14:15:00,
2013-08-26 10:20:00,73.8,65.8,30.16,WNW,302,4.0,4.0,76,0.00,,,0.00,Wunderground v.1.15,2013-08-26 14:20:00,
2013-08-26 10:25:00,74.1,66.0,30.16,WSW,257,3.0,5.0,76,0.00,,,0.00,Wunderground v.1.15,2013-08-26 14:25:00,
2013-08-26 10:30:00,74.6,66.5,30.16,SSW,212,3.0,3.0,76,0.00,,,0.00,Wunderground v.1.15,2013-08-26 14:30:00,
2013-08-26 10:40:00,75.3,66.8,30.16,SW,226,3.0,3.0,75,0.00,,,0.00,Wunderground v.1.15,2013-08-26 14:40:00,
2013-08-26 10:45:00,75.7,67.2,30.16,WNW,290,3.0,4.0,75,0.00,,,0.00,Wunderground v.1.15,2013-08-26 14:45:00,
2013-08-26 10:50:00,76.2,67.3,30.16,WNW,284,4.0,5.0,74,0.00,,,0.00,Wunderground v.1.15,2013-08-26 14:50:00,
2013-08-26 10:55:00,76.6,67.7,30.16,West,276,4.0,5.0,74,0.00,,,0.00,Wunderground v.1.15,2013-08-26 14:55:00,
2013-08-26 11:00:00,77.2,68.3,30.16,SSE,162,4.0,4.0,74,0.00,,,0.00,Wunderground v.1.15,2013-08-26 15:00:00,
2013-08-26 11:10:00,78.2,68.8,30.17,WSW,238,4.0,4.0,73,0.00,,,0.00,Wunderground v.1.15,2013-08-26 15:10:00,
2013-08-26 11:15:00,78.8,69.4,30.16,WSW,242,4.0,4.0,73,0.00,,,0.00,Wunderground v.1.15,2013-08-26 15:15:00,
2013-08-26 11:20:00,79.3,69.1,30.16,West,264,3.0,4.0,71,0.00,,,0.00,Wunderground v.1.15,2013-08-26 15:20:00,
2013-08-26 11:25:00,79.5,69.7,30.16,SW,233,4.0,5.0,72,0.00,,,0.00,Wunderground v.1.15,2013-08-26 15:25:00,
2013-08-26 11:30:00,79.7,68.6,30.16,WNW,290,4.0,8.0,69,0.00,,,0.00,Wunderground v.1.15,2013-08-26 15:30:00,
2013-08-26 11:35:00,80.1,69.4,30.16,NW,305,4.0,8.0,70,0.00,,,0.00,Wunderground v.1.15,2013-08-26 15:35:00,
2013-08-26 11:45:00,80.9,69.8,30.16,West,262,4.0,5.0,69,0.00,,,0.00,Wunderground v.1.15,2013-08-26 15:45:00,
2013-08-26 11:50:00,81.2,70.9,30.16,West,260,4.0,4.0,71,0.00,,,0.00,Wunderground v.1.15,2013-08-26 15:50:00,
2013-08-26 11:55:00,81.6,69.1,30.16,WNW,300,4.0,6.0,66,0.00,,,0.00,Wunderground v.1.15,2013-08-26 15:55:00,
2013-08-26 12:00:00,81.7,69.7,30.16,NW,316,5.0,7.0,67,0.00,,,0.00,Wunderground v.1.15,2013-08-26 16:00:00,
2013-08-26 12:10:00,82.4,69.4,30.15,WNW,295,6.0,10.0,65,0.00,,,0.00,Wunderground v.1.15,2013-08-26 16:10:00,
2013-08-26 12:20:00,83.0,69.6,30.14,WNW,302,6.0,6.0,64,0.00,,,0.00,Wunderground v.1.15,2013-08-26 16:20:00,
2013-08-26 12:25:00,82.6,68.7,30.14,WNW,301,6.0,11.0,63,0.00,,,0.00,Wunderground v.1.15,2013-08-26 16:25:00,
2013-08-26 12:30:00,82.5,69.5,30.14,WSW,238,6.0,6.0,65,0.00,,,0.00,Wunderground v.1.15,2013-08-26 16:30:00,
2013-08-26 12:35:00,82.7,69.3,30.14,NW,307,6.0,6.0,64,0.00,,,0.00,Wunderground v.1.15,2013-08-26 16:35:00,
2013-08-26 12:40:00,83.0,69.6,30.13,West,274,5.0,5.0,64,0.00,,,0.00,Wunderground v.1.15,2013-08-26 16:40:00,
2013-08-26 12:50:00,83.0,68.6,30.13,WNW,294,6.0,6.0,62,0.00,,,0.00,Wunderground v.1.15,2013-08-26 16:50:00,
2013-08-26 12:55:00,83.1,69.7,30.13,NW,305,6.0,7.0,64,0.00,,,0.00,Wunderground v.1.15,2013-08-26 16:55:00,
2013-08-26 13:00:00,83.1,69.2,30.13,WSW,256,5.0,7.0,63,0.00,,,0.00,Wunderground v.1.15,2013-08-26 17:00:00,
2013-08-26 13:10:00,83.6,70.6,30.12,SW,219,5.0,6.0,65,0.00,,,0.00,Wunderground v.1.15,2013-08-26 17:10:00,
2013-08-26 13:15:00,84.1,71.1,30.12,WNW,297,5.0,6.0,65,0.00,,,0.00,Wunderground v.1.15,2013-08-26 17:15:00,
2013-08-26 13:25:00,83.8,70.8,30.12,WNW,299,6.0,8.0,65,0.00,,,0.00,Wunderground v.1.15,2013-08-26 17:25:00,
2013-08-26 13:30:00,83.8,70.3,30.12,West,259,6.0,6.0,64,0.00,,,0.00,Wunderground v.1.15,2013-08-26 17:30:00,
2013-08-26 13:35:00,83.8,70.3,30.12,West,280,6.0,6.0,64,0.00,,,0.00,Wunderground v.1.15,2013-08-26 17:35:00,
2013-08-26 13:40:00,83.7,70.7,30.11,West,259,7.0,10.0,65,0.00,,,0.00,Wunderground v.1.15,2013-08-26 17:40:00,
2013-08-26 13:45:00,83.8,70.8,30.11,WSW,245,7.0,10.0,65,0.00,,,0.00,Wunderground v.1.15,2013-08-26 17:45:00,
2013-08-26 13:50:00,84.4,70.9,30.11,West,270,7.0,7.0,64,0.00,,,0.00,Wunderground v.1.15,2013-08-26 17:50:00,
2013-08-26 13:55:00,85.4,71.4,30.11,West,277,5.0,9.0,63,0.00,,,0.00,Wunderground v.1.15,2013-08-26 17:55:00,
2013-08-26 14:00:00,85.7,72.1,30.11,NW,319,6.0,8.0,64,0.00,,,0.00,Wunderground v.1.15,2013-08-26 18:00:00,
2013-08-26 14:10:00,85.4,71.8,30.10,WSW,250,6.0,6.0,64,0.00,,,0.00,Wunderground v.1.15,2013-08-26 18:10:00,
2013-08-26 14:15:00,85.5,72.4,30.10,West,277,6.0,6.0,65,0.00,,,0.00,Wunderground v.1.15,2013-08-26 18:15:00,
2013-08-26 14:25:00,85.8,71.7,30.10,NW,307,5.0,6.0,63,0.00,,,0.00,Wunderground v.1.15,2013-08-26 18:25:00,
2013-08-26 14:30:00,85.2,71.6,30.10,WSW,256,7.0,7.0,64,0.00,,,0.00,Wunderground v.1.15,2013-08-26 18:30:00,
2013-08-26 14:35:00,85.2,71.6,30.09,SW,232,7.0,7.0,64,0.00,,,0.00,Wunderground v.1.15,2013-08-26 18:35:00,
2013-08-26 14:40:00,84.8,71.3,30.09,NNW,330,6.0,6.0,64,0.00,,,0.00,Wunderground v.1.15,2013-08-26 18:40:00,
2013-08-26 14:45:00,84.8,71.3,30.08,WNW,287,6.0,6.0,64,0.00,,,0.00,Wunderground v.1.15,2013-08-26 18:45:00,
2013-08-26 14:50:00,84.9,71.8,30.08,WSW,238,5.0,5.0,65,0.00,,,0.00,Wunderground v.1.15,2013-08-26 18:50:00,
2013-08-26 15:00:00,84.7,71.6,30.07,WNW,284,5.0,8.0,65,0.00,,,0.00,Wunderground v.1.15,2013-08-26 19:00:00,
2013-08-26 15:10:00,85.2,72.1,30.06,SSW,209,5.0,5.0,65,0.00,,,0.00,Wunderground v.1.15,2013-08-26 19:10:00,
2013-08-26 15:15:00,85.2,71.6,30.06,West,274,5.0,7.0,64,0.00,,,0.00,Wunderground v.1.15,2013-08-26 19:15:00,
2013-08-26 15:20:00,85.2,72.1,30.06,WSW,239,5.0,5.0,65,0.00,,,0.00,Wunderground v.1.15,2013-08-26 19:20:00,
2013-08-26 15:30:00,86.3,72.7,30.05,WSW,253,5.0,5.0,64,0.00,,,0.00,Wunderground v.1.15,2013-08-26 19:30:00,
2013-08-26 15:35:00,86.7,73.5,30.05,SW,219,5.0,5.0,65,0.00,,,0.00,Wunderground v.1.15,2013-08-26 19:35:00,
2013-08-26 15:40:00,86.6,71.5,30.05,WSW,240,6.0,6.0,61,0.00,,,0.00,Wunderground v.1.15,2013-08-26 19:40:00,
2013-08-26 15:45:00,86.3,71.7,30.05,West,275,6.0,7.0,62,0.00,,,0.00,Wunderground v.1.15,2013-08-26 19:45:00,
2013-08-26 15:50:00,86.3,72.2,30.04,West,275,6.0,6.0,63,0.00,,,0.00,Wunderground v.1.15,2013-08-26 19:50:00,
2013-08-26 15:55:00,86.0,72.4,30.04,West,281,6.0,6.0,64,0.00,,,0.00,Wunderground v.1.15,2013-08-26 19:55:00,
2013-08-26 16:00:00,85.5,72.4,30.03,WSW,258,5.0,5.0,65,0.00,,,0.00,Wunderground v.1.15,2013-08-26 20:00:00,
2013-08-26 16:10:00,84.8,71.7,30.04,West,265,4.0,5.0,65,0.00,,,0.00,Wunderground v.1.15,2013-08-26 20:10:00,
2013-08-26 16:15:00,84.7,71.6,30.04,West,267,5.0,5.0,65,0.00,,,0.00,Wunderground v.1.15,2013-08-26 20:15:00,
2013-08-26 16:20:00,84.9,72.3,30.04,WNW,302,5.0,7.0,66,0.00,,,0.00,Wunderground v.1.15,2013-08-26 20:20:00,
2013-08-26 16:25:00,84.9,72.7,30.04,WNW,293,5.0,7.0,67,0.00,,,0.00,Wunderground v.1.15,2013-08-26 20:25:00,
2013-08-26 16:35:00,85.0,72.8,30.04,SW,229,4.0,4.0,67,0.00,,,0.00,Wunderground v.1.15,2013-08-26 20:35:00,
2013-08-26 16:40:00,85.1,72.9,30.04,WSW,245,3.0,3.0,67,0.00,,,0.00,Wunderground v.1.15,2013-08-26 20:40:00,
2013-08-26 16:45:00,85.0,73.3,30.04,SW,219,3.0,4.0,68,0.00,,,0.00,Wunderground v.1.15,2013-08-26 20:45:00,
2013-08-26 16:50:00,84.8,72.6,30.04,SW,221,4.0,4.0,67,0.00,,,0.00,Wunderground v.1.15,2013-08-26 20:50:00,
2013-08-26 16:55:00,84.7,72.5,30.04,West,278,5.0,5.0,67,0.00,,,0.00,Wunderground v.1.15,2013-08-26 20:55:00,
2013-08-26 17:00:00,84.7,73.0,30.04,NW,305,5.0,5.0,68,0.00,,,0.00,Wunderground v.1.15,2013-08-26 21:00:00,
2013-08-26 17:05:00,85.2,73.0,30.04,West,264,5.0,8.0,67,0.00,,,0.00,Wunderground v.1.15,2013-08-26 21:05:00,
2013-08-26 17:10:00,85.5,72.8,30.04,SW,222,5.0,5.0,66,0.00,,,0.00,Wunderground v.1.15,2013-08-26 21:10:00,
2013-08-26 17:15:00,85.7,73.5,30.04,WNW,295,4.0,5.0,67,0.00,,,0.00,Wunderground v.1.15,2013-08-26 21:15:00,
2013-08-26 17:20:00,85.6,72.9,30.04,WNW,300,4.0,4.0,66,0.00,,,0.00,Wunderground v.1.15,2013-08-26 21:20:00,
2013-08-26 17:25:00,85.5,72.8,30.04,SW,235,4.0,4.0,66,0.00,,,0.00,Wunderground v.1.15,2013-08-26 21:25:00,
2013-08-26 17:30:00,85.4,73.2,30.05,SW,224,4.0,4.0,67,0.00,,,0.00,Wunderground v.1.15,2013-08-26 21:30:00,
2013-08-26 17:40:00,84.9,73.2,30.05,WSW,253,4.0,4.0,68,0.00,,,0.00,Wunderground v.1.15,2013-08-26 21:40:00,
2013-08-26 17:45:00,84.9,73.2,30.04,West,259,3.0,4.0,68,0.00,,,0.00,Wunderground v.1.15,2013-08-26 21:45:00,
2013-08-26 17:50:00,84.8,73.5,30.04,WSW,240,3.0,3.0,69,0.00,,,0.00,Wunderground v.1.15,2013-08-26 21:50:00,
2013-08-26 17:55:00,84.5,73.2,30.04,WSW,248,3.0,4.0,69,0.00,,,0.00,Wunderground v.1.15,2013-08-26 21:55:00,
2013-08-26 18:00:00,84.5,73.2,30.04,WSW,246,4.0,4.0,69,0.00,,,0.00,Wunderground v.1.15,2013-08-26 22:00:00,
2013-08-26 18:10:00,84.7,73.4,30.05,West,262,4.0,5.0,69,0.00,,,0.00,Wunderground v.1.15,2013-08-26 22:10:00,
2013-08-26 18:15:00,85.0,73.7,30.05,WNW,300,3.0,5.0,69,0.00,,,0.00,Wunderground v.1.15,2013-08-26 22:15:00,
2013-08-26 18:20:00,84.9,73.6,30.04,West,271,4.0,4.0,69,0.00,,,0.00,Wunderground v.1.15,2013-08-26 22:20:00,
2013-08-26 18:25:00,84.8,73.9,30.04,West,273,3.0,4.0,70,0.00,,,0.00,Wunderground v.1.15,2013-08-26 22:25:00,
2013-08-26 18:30:00,84.3,73.0,30.04,SSW,212,3.0,5.0,69,0.00,,,0.00,Wunderground v.1.15,2013-08-26 22:30:00,
2013-08-26 18:35:00,84.1,73.3,30.04,West,269,4.0,5.0,70,0.00,,,0.00,Wunderground v.1.15,2013-08-26 22:35:00,
2013-08-26 18:45:00,84.0,73.2,30.04,SW,229,4.0,7.0,70,0.00,,,0.00,Wunderground v.1.15,2013-08-26 22:45:00,
2013-08-26 18:50:00,84.0,73.2,30.04,SSW,212,4.0,4.0,70,0.00,,,0.00,Wunderground v.1.15,2013-08-26 22:50:00,
2013-08-26 18:55:00,83.9,73.1,30.04,WSW,242,3.0,4.0,70,0.00,,,0.00,Wunderground v.1.15,2013-08-26 22:55:00,
2013-08-26 19:00:00,83.6,72.8,30.04,SW,229,3.0,3.0,70,0.00,,,0.00,Wunderground v.1.15,2013-08-26 23:00:00,
2013-08-26 19:10:00,82.8,72.4,30.03,West,280,3.0,3.0,71,0.00,,,0.00,Wunderground v.1.15,2013-08-26 23:10:00,
2013-08-26 19:15:00,82.6,72.7,30.03,WNW,302,3.0,3.0,72,0.00,,,0.00,Wunderground v.1.15,2013-08-26 23:15:00,
2013-08-26 19:20:00,82.4,72.5,30.03,WSW,244,2.0,2.0,72,0.00,,,0.00,Wunderground v.1.15,2013-08-26 23:20:00,
2013-08-26 19:25:00,82.4,72.5,30.03,WSW,247,2.0,4.0,72,0.00,,,0.00,Wunderground v.1.15,2013-08-26 23:25:00,
2013-08-26 19:30:00,82.7,72.7,30.03,West,279,2.0,3.0,72,0.00,,,0.00,Wunderground v.1.15,2013-08-26 23:30:00,
2013-08-26 19:35:00,82.9,72.9,30.04,West,270,2.0,3.0,72,0.00,,,0.00,Wunderground v.1.15,2013-08-26 23:35:00,
2013-08-26 19:40:00,82.9,72.9,30.04,West,265,2.0,2.0,72,0.00,,,0.00,Wunderground v.1.15,2013-08-26 23:40:00,
2013-08-26 19:50:00,82.6,72.7,30.04,West,267,2.0,4.0,72,0.00,,,0.00,Wunderground v.1.15,2013-08-26 23:50:00,
2013-08-26 19:55:00,82.3,72.8,30.04,West,278,1.0,4.0,73,0.00,,,0.00,Wunderground v.1.15,2013-08-26 23:55:00,
2013-08-26 20:00:00,81.9,72.4,30.04,West,264,1.0,2.0,73,0.00,,,0.00,Wunderground v.1.15,2013-08-27 00:00:00,
2013-08-26 20:10:00,81.1,72.4,30.04,West,264,1.0,3.0,75,0.00,,,0.00,Wunderground v.1.15,2013-08-27 00:10:00,
2013-08-26 20:20:00,80.3,72.0,30.04,WSW,254,2.0,2.0,76,0.00,,,0.00,Wunderground v.1.15,2013-08-27 00:20:00,
2013-08-26 20:25:00,79.9,71.7,30.04,WSW,243,1.0,2.0,76,0.00,,,0.00,Wunderground v.1.15,2013-08-27 00:25:00,
2013-08-26 20:30:00,79.6,71.8,30.04,WSW,252,1.0,1.0,77,0.00,,,0.00,Wunderground v.1.15,2013-08-27 00:30:00,
2013-08-26 20:35:00,79.4,71.6,30.04,West,264,1.0,1.0,77,0.00,,,0.00,Wunderground v.1.15,2013-08-27 00:35:00,
2013-08-26 20:40:00,79.0,71.2,30.03,WSW,248,1.0,1.0,77,0.00,,,0.00,Wunderground v.1.15,2013-08-27 00:40:00,
2013-08-26 20:45:00,78.7,71.3,30.04,West,259,1.0,2.0,78,0.00,,,0.00,Wunderground v.1.15,2013-08-27 00:45:00,
2013-08-26 20:50:00,78.6,71.2,30.04,WSW,245,1.0,1.0,78,0.00,,,0.00,Wunderground v.1.15,2013-08-27 00:50:00,
2013-08-26 20:55:00,78.4,71.0,30.04,West,274,1.0,1.0,78,0.00,,,0.00,Wunderground v.1.15,2013-08-27 00:55:00,
2013-08-26 21:00:00,78.4,71.0,30.03,SSW,210,2.0,4.0,78,0.00,,,0.00,Wunderground v.1.15,2013-08-27 01:00:00,
2013-08-26 21:10:00,78.3,70.9,30.03,West,264,2.0,2.0,78,0.00,,,0.00,Wunderground v.1.15,2013-08-27 01:10:00,
2013-08-26 21:15:00,78.1,70.7,30.03,SW,232,2.0,2.0,78,0.00,,,0.00,Wunderground v.1.15,2013-08-27 01:15:00,
2013-08-26 21:25:00,77.8,70.4,30.03,WSW,252,2.0,2.0,78,0.00,,,0.00,Wunderground v.1.15,2013-08-27 01:25:00,
2013-08-26 21:30:00,77.7,70.3,30.03,WSW,247,1.0,2.0,78,0.00,,,0.00,Wunderground v.1.15,2013-08-27 01:30:00,
2013-08-26 21:35:00,77.6,70.2,30.03,SW,232,2.0,2.0,78,0.00,,,0.00,Wunderground v.1.15,2013-08-27 01:35:00,
2013-08-26 21:40:00,77.4,70.4,30.03,SW,225,2.0,4.0,79,0.00,,,0.00,Wunderground v.1.15,2013-08-27 01:40:00,
2013-08-26 21:45:00,77.2,70.2,30.03,SSW,205,2.0,4.0,79,0.00,,,0.00,Wunderground v.1.15,2013-08-27 01:45:00,
2013-08-26 21:55:00,76.9,70.3,30.03,West,262,2.0,2.0,80,0.00,,,0.00,Wunderground v.1.15,2013-08-27 01:55:00,
2013-08-26 22:00:00,76.8,70.2,30.03,WSW,256,1.0,2.0,80,0.00,,,0.00,Wunderground v.1.15,2013-08-27 02:00:00,
2013-08-26 22:10:00,76.3,70.0,30.03,West,267,2.0,2.0,81,0.00,,,0.00,Wunderground v.1.15,2013-08-27 02:10:00,
2013-08-26 22:15:00,76.0,70.1,30.03,WSW,252,2.0,2.0,82,0.00,,,0.00,Wunderground v.1.15,2013-08-27 02:15:00,
2013-08-26 22:20:00,75.9,70.0,30.03,WNW,300,2.0,2.0,82,0.00,,,0.00,Wunderground v.1.15,2013-08-27 02:20:00,
2013-08-26 22:30:00,75.8,69.9,30.03,WNW,294,2.0,2.0,82,0.00,,,0.00,Wunderground v.1.15,2013-08-27 02:30:00,
2013-08-26 22:35:00,75.8,69.9,30.03,WNW,291,2.0,3.0,82,0.00,,,0.00,Wunderground v.1.15,2013-08-27 02:35:00,
2013-08-26 22:40:00,76.1,70.2,30.03,WSW,243,2.0,3.0,82,0.00,,,0.00,Wunderground v.1.15,2013-08-27 02:40:00,
2013-08-26 22:45:00,76.2,69.9,30.03,WSW,238,3.0,6.0,81,0.00,,,0.00,Wunderground v.1.15,2013-08-27 02:45:00,
2013-08-26 22:50:00,76.5,70.2,30.03,West,267,3.0,3.0,81,0.00,,,0.00,Wunderground v.1.15,2013-08-27 02:50:00,
2013-08-26 23:00:00,76.7,70.4,30.03,West,259,2.0,2.0,81,0.00,,,0.00,Wunderground v.1.15,2013-08-27 03:00:00,
2013-08-26 23:10:00,76.7,70.1,30.03,WSW,255,2.0,2.0,80,0.00,,,0.00,Wunderground v.1.15,2013-08-27 03:10:00,
2013-08-26 23:15:00,76.6,70.0,30.03,West,260,2.0,4.0,80,0.00,,,0.00,Wunderground v.1.15,2013-08-27 03:15:00,
2013-08-26 23:20:00,76.6,70.0,30.03,SW,231,2.0,2.0,80,0.00,,,0.00,Wunderground v.1.15,2013-08-27 03:20:00,
2013-08-26 23:25:00,76.5,70.2,30.03,West,281,2.0,2.0,81,0.00,,,0.00,Wunderground v.1.15,2013-08-27 03:25:00,
2013-08-26 23:35:00,76.2,69.9,30.02,WNW,291,2.0,2.0,81,0.00,,,0.00,Wunderground v.1.15,2013-08-27 03:35:00,
2013-08-26 23:40:00,76.1,69.8,30.02,WSW,256,2.0,3.0,81,0.00,,,0.00,Wunderground v.1.15,2013-08-27 03:40:00,
2013-08-26 23:45:00,76.0,70.1,30.02,WSW,257,2.0,3.0,82,0.00,,,0.00,Wunderground v.1.15,2013-08-27 03:45:00,
2013-08-26 23:50:00,75.9,70.0,30.02,WNW,283,2.0,2.0,82,0.00,,,0.00,Wunderground v.1.15,2013-08-27 03:50:00,
2013-08-26 23:55:00,75.8,69.9,30.02,WSW,250,2.0,3.0,82,0.00,,,0.00,Wunderground v.1.15,2013-08-27 03:55:00,